Hourly Data Report for July 21, 2017

QUALICUM BEACH AIRPORT
BRITISH COLUMBIA

49°20'14.000" N
124°23'38.000" W
58.20 m
1026562
71766
VOQ

Download Data

Hourly Data (July 2017)
Hourly Data Report for July 21, 2017
TIME
LST
Temp Definition
°C
Dew Point Definition
°C
Rel Hum Definition
%
Precip. Amount Definition
mm

Wind Dir Definition
10's deg

Wind Spd Definition
km/h
Visibility Definition
km
Stn Press Definition
kPa
Hmdx Definition


Wind Chill Definition


Weather Definition


00:00 12.5 9.9 84 0.0 13 4   101.26     LegendNANA
01:00 11.5 9.8 89 0.0 15 3   101.25     LegendNANA
02:00 11.6 10.0 90 0.0 16 3   101.25     LegendNANA
03:00 11.5 9.8 89 0.0 17 1   101.24     LegendNANA
04:00 11.9 9.9 88 0.0 0 1   101.24     LegendNANA
05:00 12.6 9.8 83 0.0 0 1   101.23     LegendNANA
06:00 13.3 10.7 84 0.0   0   101.25     LegendNANA
07:00 15.5 10.8 73 0.0 29 3   101.27     LegendNANA
08:00 17.1 12.5 74 0.0 23 2   101.31     LegendNANA
09:00 17.5 13.6 78 0.0 35 4   101.35     LegendNANA
10:00 17.2 13.2 78 0.0 33 5   101.37     LegendNANA
11:00 17.9 12.7 72 0.4 30 5   101.38     LegendNANA
12:00 18.0 14.1 78 0.0 35 4   101.39     LegendNANA
13:00 18.1 14.1 78 0.0 5 4   101.40     LegendNANA
14:00 18.0 14.0 78 0.0 9 5   101.41     LegendNANA
15:00 18.5 14.7 78 0.0 4 4   101.39     LegendNANA
16:00 16.6 15.0 91 0.1 27 5   101.39     LegendNANA
17:00 17.6 13.9 79 0.0 5 2   101.36     LegendNANA
18:00 17.5 14.8 84 0.0 33 3   101.35     LegendNANA
19:00 16.8 14.5 86 0.0 28 2   101.32     LegendNANA
20:00 16.2 15.3 94 0.1 28 2   101.31     LegendNANA
21:00 15.7 15.0 96 0.1 28 3   101.31     LegendNANA
22:00 15.5 14.9 97 0.0 29 3   101.28     LegendNANA
23:00 15.4 14.9 97 0.0 29 5   101.33     LegendNANA

Notes on Data Quality.

Legend

  • E = Estimated
  • M = Missing
  • NA = Not Available*
  • [empty] = Indicates an unobserved value
Date modified: